LSP1301 KMIA-SCEL

Flight info

Callsign LSP1301
Flight time N/A
Altitude 31000
Route GWAVA2 URSUS UL780 LEPEG/N0496F330 UL780 GYV/N0492F350 UL780 SULNA/N0479F370 UT315 TOY UV208 EMBAL UV204 SIMOK SIMOK7B
Aircraft B77L/H-SDE1E2E3FGHIJ2J3J4J5M1RWXY/LB1D1

Departure

Time N/A
Airport Miami International Airport (KMIA)

Arrival

Time 2026-05-01 12:52
Airport Comodoro Arturo Merino Benítez International Airport (SCEL)
Time Latitude Longitude Altitude Speed Heading
2026-05-01 07:23 10.03439 -79.51837 32813 ft 486 kts 185°
2026-05-01 07:24 9.93290 -79.52193 32825 ft 486 kts 185°
2026-05-01 07:24 9.86573 -79.52429 32816 ft 486 kts 185°
2026-05-01 07:25 9.79822 -79.52666 32825 ft 485 kts 185°
2026-05-01 07:25 9.73060 -79.52903 32822 ft 485 kts 185°
2026-05-01 07:26 9.66312 -79.53140 32825 ft 485 kts 185°
2026-05-01 07:26 9.59578 -79.53375 32826 ft 483 kts 185°
2026-05-01 07:27 9.52910 -79.53608 32825 ft 481 kts 185°
2026-05-01 07:27 9.46215 -79.53843 32829 ft 479 kts 185°
2026-05-01 07:28 9.39596 -79.54076 32834 ft 478 kts 185°
2026-05-01 07:28 9.32941 -79.54308 32837 ft 478 kts 185°
2026-05-01 07:29 9.26283 -79.54541 32836 ft 479 kts 185°
2026-05-01 07:29 9.19613 -79.54775 32827 ft 479 kts 185°
2026-05-01 07:30 9.12988 -79.55006 32851 ft 479 kts 185°
2026-05-01 07:30 9.06314 -79.55239 32856 ft 479 kts 185°
2026-05-01 07:31 8.99640 -79.55473 32856 ft 480 kts 185°
2026-05-01 07:32 8.82942 -79.56055 32829 ft 480 kts 184°
2026-05-01 07:33 8.72965 -79.56386 32820 ft 481 kts 184°
2026-05-01 07:33 8.62922 -79.56678 32821 ft 481 kts 184°
2026-05-01 07:34 8.52891 -79.56976 32813 ft 481 kts 184°
2026-05-01 07:35 8.46206 -79.57176 32813 ft 480 kts 184°
2026-05-01 07:35 8.39513 -79.57376 32813 ft 481 kts 184°
2026-05-01 07:36 8.32828 -79.57576 32810 ft 481 kts 184°
2026-05-01 07:36 8.26177 -79.57775 32810 ft 481 kts 184°
2026-05-01 07:37 8.16138 -79.58075 32812 ft 481 kts 183°
2026-05-01 07:37 8.09446 -79.58275 32811 ft 481 kts 183°
2026-05-01 07:38 8.02751 -79.58475 32816 ft 481 kts 183°
2026-05-01 07:39 7.92703 -79.58775 32817 ft 481 kts 183°
2026-05-01 07:39 7.82701 -79.59073 32809 ft 481 kts 182°
2026-05-01 07:40 7.76003 -79.59273 32813 ft 482 kts 182°
2026-05-01 07:40 7.69292 -79.59473 32819 ft 482 kts 182°
2026-05-01 07:41 7.62574 -79.59673 32813 ft 482 kts 182°
2026-05-01 07:42 7.52492 -79.59974 32815 ft 483 kts 182°
2026-05-01 07:42 7.45819 -79.60172 32813 ft 483 kts 182°
2026-05-01 07:43 7.39088 -79.60373 32813 ft 484 kts 182°
2026-05-01 07:43 7.28975 -79.60674 32818 ft 486 kts 182°
2026-05-01 07:44 7.15441 -79.61057 32817 ft 487 kts 182°
2026-05-01 07:45 7.08662 -79.61245 32814 ft 487 kts 182°
2026-05-01 07:45 7.01890 -79.61434 32814 ft 486 kts 182°
2026-05-01 07:46 6.95157 -79.61623 32817 ft 486 kts 182°
2026-05-01 07:47 6.85004 -79.61907 32819 ft 486 kts 182°
2026-05-01 07:47 6.78243 -79.62096 32815 ft 486 kts 182°
2026-05-01 07:48 6.68091 -79.62380 32812 ft 486 kts 182°
2026-05-01 07:48 6.61363 -79.62568 32816 ft 487 kts 182°
2026-05-01 07:49 6.51196 -79.62853 32813 ft 488 kts 182°
2026-05-01 07:50 6.44401 -79.63043 32816 ft 488 kts 182°
2026-05-01 07:50 6.34201 -79.63327 32828 ft 488 kts 182°
2026-05-01 07:51 6.27423 -79.63516 32819 ft 486 kts 182°
2026-05-01 07:52 6.17340 -79.63798 32815 ft 484 kts 182°
2026-05-01 07:52 6.10614 -79.63986 32813 ft 483 kts 182°
2026-05-01 07:53 6.00552 -79.64267 32815 ft 482 kts 182°
2026-05-01 07:53 5.94930 -79.64423 32815 ft 482 kts 183°
2026-05-01 07:55 5.78191 -79.64891 32823 ft 483 kts 183°
2026-05-01 07:56 5.61373 -79.65359 32807 ft 483 kts 183°
2026-05-01 07:57 5.51261 -79.65641 32826 ft 485 kts 183°
2026-05-01 07:58 5.37758 -79.66017 32820 ft 487 kts 183°
2026-05-01 07:59 5.24240 -79.66393 32816 ft 487 kts 183°
2026-05-01 08:00 5.03876 -79.67156 32826 ft 488 kts 185°
2026-05-01 08:01 4.90343 -79.67784 32821 ft 488 kts 184°
2026-05-01 08:02 4.80146 -79.68239 32823 ft 488 kts 184°
2026-05-01 08:03 4.69970 -79.68693 32821 ft 487 kts 184°
2026-05-01 08:03 4.59846 -79.69145 32821 ft 487 kts 184°
2026-05-01 08:04 4.46298 -79.69749 32820 ft 487 kts 184°
2026-05-01 08:05 4.36129 -79.70203 32826 ft 487 kts 184°
2026-05-01 08:06 4.25963 -79.70657 32827 ft 487 kts 184°
2026-05-01 08:07 4.12441 -79.71260 32825 ft 488 kts 184°
2026-05-01 08:08 4.02261 -79.71714 32830 ft 488 kts 185°
2026-05-01 08:09 3.88665 -79.72320 32825 ft 489 kts 185°
2026-05-01 08:09 3.81868 -79.72623 32829 ft 489 kts 185°
2026-05-01 08:10 3.68300 -79.73227 32828 ft 489 kts 185°
2026-05-01 08:11 3.54710 -79.73832 32827 ft 490 kts 185°
2026-05-01 08:12 3.44485 -79.74288 32827 ft 490 kts 185°
2026-05-01 08:13 3.34261 -79.74743 32828 ft 490 kts 185°
2026-05-01 08:13 3.24019 -79.75198 32826 ft 490 kts 185°
2026-05-01 08:14 3.17201 -79.75502 32829 ft 490 kts 185°
2026-05-01 08:14 3.10376 -79.75806 32831 ft 490 kts 185°
2026-05-01 08:15 3.00195 -79.76258 32829 ft 490 kts 185°
2026-05-01 08:16 2.93369 -79.76562 32832 ft 490 kts 185°
2026-05-01 08:16 2.86544 -79.76866 32836 ft 491 kts 185°
2026-05-01 08:17 2.79752 -79.77168 32832 ft 492 kts 185°
2026-05-01 08:17 2.72914 -79.77472 32830 ft 492 kts 185°
2026-05-01 08:18 2.66066 -79.77776 32835 ft 492 kts 185°
2026-05-01 08:19 2.52360 -79.78385 32836 ft 493 kts 185°
2026-05-01 08:19 2.45500 -79.78690 32834 ft 493 kts 185°
2026-05-01 08:20 2.38675 -79.78994 32835 ft 493 kts 185°
2026-05-01 08:20 2.31804 -79.79299 32835 ft 493 kts 185°
2026-05-01 08:21 2.24940 -79.79604 32840 ft 493 kts 185°
2026-05-01 08:21 2.18084 -79.79908 32835 ft 493 kts 185°
2026-05-01 08:22 2.11218 -79.80213 32835 ft 493 kts 185°
2026-05-01 08:22 2.04357 -79.80518 32835 ft 493 kts 185°
2026-05-01 08:23 1.97494 -79.80823 32835 ft 493 kts 185°
2026-05-01 08:23 1.90684 -79.81125 32834 ft 493 kts 185°
2026-05-01 08:24 1.83822 -79.81430 32837 ft 493 kts 185°
2026-05-01 08:24 1.76962 -79.81735 32834 ft 493 kts 185°
2026-05-01 08:25 1.70092 -79.82040 32838 ft 493 kts 185°
2026-05-01 08:25 1.63279 -79.82342 32838 ft 493 kts 185°
2026-05-01 08:26 1.56407 -79.82647 32839 ft 493 kts 185°
2026-05-01 08:26 1.49562 -79.82951 32840 ft 493 kts 185°
2026-05-01 08:27 1.42700 -79.83256 32837 ft 492 kts 185°
2026-05-01 08:27 1.35893 -79.83444 32837 ft 493 kts 182°
2026-05-01 08:28 1.29031 -79.83473 32840 ft 492 kts 182°
2026-05-01 08:28 1.22176 -79.83500 32837 ft 492 kts 182°
2026-05-01 08:29 1.15316 -79.83553 32853 ft 492 kts 182°
2026-05-01 08:29 1.08467 -79.83620 32862 ft 492 kts 182°
2026-05-01 08:30 1.01663 -79.83689 32871 ft 491 kts 182°
2026-05-01 08:30 0.94827 -79.83756 32874 ft 491 kts 182°
2026-05-01 08:31 0.87988 -79.83823 32892 ft 491 kts 182°
2026-05-01 08:31 0.81150 -79.83889 32889 ft 491 kts 182°
2026-05-01 08:32 0.74317 -79.83956 32910 ft 491 kts 182°
2026-05-01 08:32 0.67485 -79.84023 32907 ft 491 kts 182°
2026-05-01 08:33 0.60653 -79.84088 32912 ft 491 kts 182°
2026-05-01 08:33 0.53824 -79.84154 32920 ft 491 kts 182°
2026-05-01 08:34 0.47035 -79.84221 32926 ft 491 kts 182°
2026-05-01 08:34 0.40206 -79.84287 32929 ft 491 kts 182°
2026-05-01 08:35 0.33374 -79.84354 32929 ft 491 kts 182°
2026-05-01 08:35 0.26537 -79.84421 32948 ft 491 kts 182°
2026-05-01 08:36 0.19673 -79.84487 33114 ft 496 kts 182°
2026-05-01 08:36 0.16223 -79.84521 33591 ft 494 kts 182°
2026-05-01 08:36 0.12831 -79.84553 34148 ft 491 kts 182°
2026-05-01 08:36 0.09428 -79.84585 34652 ft 488 kts 182°
2026-05-01 08:37 0.06036 -79.84618 34980 ft 488 kts 182°
2026-05-01 08:37 -0.00748 -79.84685 35002 ft 485 kts 182°
2026-05-01 08:38 -0.07505 -79.84751 35002 ft 486 kts 182°
2026-05-01 08:38 -0.14278 -79.84817 35000 ft 487 kts 182°
2026-05-01 08:39 -0.21061 -79.84886 34996 ft 488 kts 182°
2026-05-01 08:39 -0.26707 -79.84938 34993 ft 488 kts 182°
2026-05-01 08:40 -0.37999 -79.85047 34989 ft 488 kts 182°
2026-05-01 08:40 -0.43690 -79.85103 34989 ft 488 kts 182°
2026-05-01 08:41 -0.50431 -79.85169 34993 ft 487 kts 182°
2026-05-01 08:41 -0.57219 -79.85235 34988 ft 487 kts 182°
2026-05-01 08:42 -0.64001 -79.85300 34980 ft 487 kts 182°
2026-05-01 08:42 -0.70771 -79.85366 34988 ft 486 kts 182°
2026-05-01 08:43 -0.77538 -79.85432 34974 ft 486 kts 182°
2026-05-01 08:43 -0.84307 -79.85498 34974 ft 486 kts 182°
2026-05-01 08:44 -0.91082 -79.85564 34965 ft 486 kts 182°
2026-05-01 08:44 -0.97821 -79.85629 34963 ft 486 kts 182°
2026-05-01 08:45 -1.04597 -79.85695 34962 ft 487 kts 182°
2026-05-01 08:45 -1.11381 -79.85762 34950 ft 487 kts 182°
2026-05-01 08:46 -1.18156 -79.85828 34954 ft 487 kts 181°
2026-05-01 08:46 -1.24894 -79.85893 34926 ft 486 kts 181°
2026-05-01 08:47 -1.31666 -79.85959 34926 ft 486 kts 181°
2026-05-01 08:47 -1.38442 -79.86025 34927 ft 486 kts 181°
2026-05-01 08:48 -1.45206 -79.86090 34929 ft 486 kts 181°
2026-05-01 08:48 -1.51934 -79.86153 34906 ft 486 kts 181°
2026-05-01 08:49 -1.58703 -79.86214 34914 ft 486 kts 181°
2026-05-01 08:49 -1.65466 -79.86274 34904 ft 486 kts 181°
2026-05-01 08:50 -1.72236 -79.86335 34912 ft 486 kts 181°
2026-05-01 08:50 -1.78958 -79.86395 34908 ft 486 kts 181°
2026-05-01 08:51 -1.85723 -79.86456 34895 ft 486 kts 181°
2026-05-01 08:51 -1.92485 -79.86517 34889 ft 486 kts 181°
2026-05-01 08:52 -1.99250 -79.86578 34876 ft 486 kts 181°
2026-05-01 08:52 -2.06020 -79.86639 34877 ft 486 kts 181°
2026-05-01 08:53 -2.12791 -79.86657 34884 ft 487 kts 179°
2026-05-01 08:53 -2.19493 -79.85925 34897 ft 487 kts 173°
2026-05-01 08:54 -2.26223 -79.85006 34884 ft 487 kts 173°
2026-05-01 08:54 -2.32950 -79.84114 34879 ft 488 kts 173°
2026-05-01 08:55 -2.39685 -79.83247 34875 ft 488 kts 174°
2026-05-01 08:55 -2.46423 -79.82386 34867 ft 488 kts 174°
2026-05-01 08:56 -2.53172 -79.81520 34870 ft 488 kts 174°
2026-05-01 08:56 -2.59880 -79.80659 34872 ft 489 kts 174°
2026-05-01 08:57 -2.66619 -79.79794 34875 ft 489 kts 174°
2026-05-01 08:57 -2.73369 -79.78926 34881 ft 489 kts 173°
2026-05-01 08:58 -2.80133 -79.78058 34884 ft 489 kts 173°
2026-05-01 08:58 -2.86888 -79.77193 34896 ft 490 kts 173°
2026-05-01 08:59 -2.93656 -79.76329 34892 ft 490 kts 173°
2026-05-01 08:59 -3.00377 -79.75470 34891 ft 490 kts 173°
2026-05-01 09:00 -3.07152 -79.74604 34901 ft 490 kts 173°
2026-05-01 09:00 -3.13926 -79.73737 34905 ft 491 kts 173°
2026-05-01 09:01 -3.20711 -79.72869 34917 ft 491 kts 173°
2026-05-01 09:01 -3.27493 -79.72001 34945 ft 492 kts 173°
2026-05-01 09:02 -3.34280 -79.71133 34950 ft 491 kts 173°
2026-05-01 09:02 -3.41073 -79.70263 34950 ft 492 kts 174°
2026-05-01 09:03 -3.47825 -79.69399 34961 ft 492 kts 174°
2026-05-01 09:03 -3.54619 -79.68530 34956 ft 493 kts 174°
2026-05-01 09:04 -3.61431 -79.67658 34960 ft 493 kts 174°
2026-05-01 09:04 -3.68237 -79.66786 34971 ft 492 kts 174°
2026-05-01 09:05 -3.75030 -79.65915 34973 ft 493 kts 173°
2026-05-01 09:05 -3.81847 -79.65042 34962 ft 494 kts 173°
2026-05-01 09:06 -3.88668 -79.64169 34973 ft 494 kts 174°
2026-05-01 09:06 -3.95496 -79.63294 34971 ft 495 kts 174°
2026-05-01 09:07 -4.02331 -79.62418 34972 ft 495 kts 174°
2026-05-01 09:07 -4.09131 -79.61546 34971 ft 496 kts 173°
2026-05-01 09:08 -4.15978 -79.60668 34969 ft 496 kts 173°
2026-05-01 09:08 -4.22823 -79.59790 34972 ft 495 kts 174°
2026-05-01 09:09 -4.29658 -79.58913 34974 ft 495 kts 174°
2026-05-01 09:09 -4.36493 -79.58036 34990 ft 495 kts 174°
2026-05-01 09:10 -4.43325 -79.57159 34998 ft 495 kts 173°
2026-05-01 09:10 -4.50122 -79.56288 35022 ft 495 kts 174°
2026-05-01 09:11 -4.56966 -79.55423 35015 ft 496 kts 174°
2026-05-01 09:11 -4.63820 -79.54571 35015 ft 496 kts 174°
2026-05-01 09:12 -4.70681 -79.53717 35028 ft 496 kts 174°
2026-05-01 09:12 -4.77542 -79.52860 35038 ft 497 kts 174°
2026-05-01 09:13 -4.84413 -79.52001 35041 ft 497 kts 174°
2026-05-01 09:13 -4.91234 -79.51148 35037 ft 498 kts 174°
2026-05-01 09:14 -4.98118 -79.50287 35048 ft 499 kts 173°
2026-05-01 09:14 -5.05022 -79.49423 35046 ft 500 kts 174°
2026-05-01 09:15 -5.11931 -79.48558 35031 ft 501 kts 174°
2026-05-01 09:15 -5.18850 -79.47693 35033 ft 500 kts 173°
2026-05-01 09:16 -5.25710 -79.46835 35028 ft 500 kts 173°
2026-05-01 09:17 -5.36061 -79.45538 35033 ft 500 kts 173°
2026-05-01 09:17 -5.46433 -79.44239 35019 ft 500 kts 173°
2026-05-01 09:18 -5.56808 -79.42939 35010 ft 501 kts 173°
2026-05-01 09:19 -5.67148 -79.41643 35015 ft 502 kts 173°
2026-05-01 09:20 -5.77588 -79.40334 35019 ft 505 kts 173°
2026-05-01 09:21 -5.91576 -79.38579 35017 ft 507 kts 173°
2026-05-01 09:21 -6.02093 -79.37259 35013 ft 508 kts 173°
2026-05-01 09:22 -6.16104 -79.35501 35002 ft 508 kts 173°
2026-05-01 09:23 -6.26581 -79.34184 35002 ft 506 kts 173°
2026-05-01 09:24 -6.37078 -79.32865 34992 ft 506 kts 173°
2026-05-01 09:25 -6.51015 -79.31113 34967 ft 506 kts 173°
2026-05-01 09:26 -6.61507 -79.29793 34952 ft 506 kts 173°
2026-05-01 09:26 -6.71991 -79.28473 34956 ft 506 kts 173°
2026-05-01 09:27 -6.81298 -79.27302 34971 ft 506 kts 173°
2026-05-01 09:28 -6.88286 -79.26422 34969 ft 506 kts 173°
2026-05-01 09:28 -6.95276 -79.25541 34973 ft 506 kts 173°
2026-05-01 09:29 -7.05720 -79.24225 34965 ft 506 kts 173°
2026-05-01 09:30 -7.16218 -79.22902 34966 ft 507 kts 173°
2026-05-01 09:30 -7.26731 -79.21576 34956 ft 507 kts 173°
2026-05-01 09:31 -7.33739 -79.20691 34950 ft 507 kts 173°
2026-05-01 09:32 -7.44205 -79.19370 34943 ft 507 kts 173°
2026-05-01 09:32 -7.54722 -79.18042 34950 ft 507 kts 173°
2026-05-01 09:33 -7.61735 -79.17155 34946 ft 506 kts 173°
2026-05-01 09:34 -7.72182 -79.15835 34950 ft 507 kts 173°
2026-05-01 09:34 -7.82695 -79.14505 34930 ft 507 kts 173°
2026-05-01 09:35 -7.93200 -79.13176 34919 ft 507 kts 173°
2026-05-01 09:36 -8.00205 -79.12289 34910 ft 507 kts 173°
2026-05-01 09:36 -8.07204 -79.11399 34913 ft 507 kts 172°
2026-05-01 09:37 -8.14099 -79.09892 34915 ft 507 kts 165°
2026-05-01 09:37 -8.24305 -79.07070 34919 ft 507 kts 165°
2026-05-01 09:38 -8.34504 -79.04299 34916 ft 509 kts 165°
2026-05-01 09:39 -8.44821 -79.01532 34933 ft 512 kts 165°
2026-05-01 09:39 -8.51686 -78.99689 34924 ft 514 kts 165°
2026-05-01 09:40 -8.62080 -78.96895 34930 ft 515 kts 165°
2026-05-01 09:41 -8.69012 -78.95030 34921 ft 515 kts 165°
2026-05-01 09:41 -8.79402 -78.92235 34916 ft 514 kts 165°
2026-05-01 09:42 -8.86320 -78.90372 34916 ft 514 kts 165°
2026-05-01 09:43 -9.00079 -78.86665 34918 ft 512 kts 165°
2026-05-01 09:43 -9.06977 -78.84806 34917 ft 512 kts 165°
2026-05-01 09:44 -9.17302 -78.82022 34918 ft 511 kts 165°
2026-05-01 09:45 -9.24174 -78.80167 34922 ft 511 kts 165°
2026-05-01 09:45 -9.34444 -78.77395 34920 ft 511 kts 165°
2026-05-01 09:46 -9.41325 -78.75536 34920 ft 512 kts 165°
2026-05-01 09:46 -9.48212 -78.73675 34917 ft 512 kts 165°
2026-05-01 09:47 -9.55098 -78.71814 34918 ft 512 kts 165°
2026-05-01 09:47 -9.61994 -78.69948 34918 ft 512 kts 165°
2026-05-01 09:48 -9.68893 -78.68082 34921 ft 513 kts 165°
2026-05-01 09:48 -9.75749 -78.66226 34912 ft 514 kts 165°
2026-05-01 09:49 -9.82670 -78.64351 34922 ft 515 kts 165°
2026-05-01 09:49 -9.89616 -78.62468 34919 ft 516 kts 165°
2026-05-01 09:50 -9.96566 -78.60582 34921 ft 517 kts 165°
2026-05-01 09:50 -10.03513 -78.58697 34926 ft 517 kts 165°
2026-05-01 09:51 -10.10429 -78.56819 34920 ft 517 kts 165°
2026-05-01 09:51 -10.17392 -78.54928 34921 ft 517 kts 165°
2026-05-01 09:52 -10.24339 -78.53040 34918 ft 517 kts 165°
2026-05-01 09:52 -10.31294 -78.51149 34918 ft 516 kts 165°
2026-05-01 09:53 -10.38236 -78.49261 34923 ft 516 kts 165°
2026-05-01 09:53 -10.45163 -78.47376 34919 ft 515 kts 165°
2026-05-01 09:54 -10.52093 -78.45490 34920 ft 515 kts 165°
2026-05-01 09:54 -10.58968 -78.43617 34920 ft 514 kts 165°
2026-05-01 09:55 -10.65889 -78.41731 34922 ft 514 kts 165°
2026-05-01 09:55 -10.72809 -78.39844 34924 ft 514 kts 165°
2026-05-01 09:56 -10.79722 -78.37959 34922 ft 514 kts 165°
2026-05-01 09:56 -10.86586 -78.36086 34923 ft 513 kts 165°
2026-05-01 09:57 -10.93489 -78.34202 34920 ft 513 kts 165°
2026-05-01 09:57 -11.00393 -78.32316 34921 ft 513 kts 165°
2026-05-01 09:58 -11.07287 -78.30432 34922 ft 513 kts 165°
2026-05-01 09:58 -11.14190 -78.28544 34925 ft 513 kts 166°
2026-05-01 09:59 -11.21079 -78.26660 34916 ft 513 kts 166°
2026-05-01 09:59 -11.27978 -78.24772 34919 ft 512 kts 166°
2026-05-01 10:00 -11.34860 -78.22887 34923 ft 512 kts 166°
2026-05-01 10:00 -11.41703 -78.21013 34926 ft 512 kts 166°
2026-05-01 10:01 -11.48598 -78.19123 34925 ft 512 kts 166°
2026-05-01 10:01 -11.55484 -78.17234 34923 ft 512 kts 166°
2026-05-01 10:02 -11.62380 -78.15343 34920 ft 512 kts 166°
2026-05-01 10:02 -11.69269 -78.13451 34923 ft 512 kts 166°
2026-05-01 10:03 -11.76105 -78.11574 34924 ft 512 kts 166°
2026-05-01 10:03 -11.83017 -78.09674 34925 ft 512 kts 166°
2026-05-01 10:04 -11.89914 -78.07778 34924 ft 512 kts 166°
2026-05-01 10:04 -11.96750 -78.05897 34930 ft 512 kts 166°
2026-05-01 10:05 -12.03647 -78.03999 34930 ft 512 kts 166°
2026-05-01 10:05 -12.10539 -78.02102 34927 ft 512 kts 166°
2026-05-01 10:06 -12.17422 -78.00205 34936 ft 512 kts 166°
2026-05-01 10:06 -12.24301 -77.98308 34928 ft 512 kts 166°
2026-05-01 10:07 -12.31177 -77.96412 34926 ft 512 kts 166°
2026-05-01 10:07 -12.38010 -77.94526 34925 ft 512 kts 166°
2026-05-01 10:08 -12.48365 -77.91667 34928 ft 514 kts 166°
2026-05-01 10:09 -12.55291 -77.89753 34935 ft 515 kts 166°
2026-05-01 10:09 -12.62208 -77.87840 34933 ft 515 kts 166°
2026-05-01 10:10 -12.69088 -77.85937 34923 ft 515 kts 166°
2026-05-01 10:10 -12.79461 -77.83065 34934 ft 514 kts 166°
2026-05-01 10:11 -12.86383 -77.81147 34937 ft 514 kts 166°
2026-05-01 10:11 -12.93286 -77.79233 34932 ft 514 kts 166°
2026-05-01 10:12 -12.99022 -77.77643 34928 ft 514 kts 166°
2026-05-01 10:13 -13.10499 -77.74457 34939 ft 514 kts 166°
2026-05-01 10:13 -13.17394 -77.72542 34935 ft 514 kts 166°
2026-05-01 10:14 -13.27755 -77.69662 34942 ft 513 kts 166°
2026-05-01 10:14 -13.34650 -77.67744 34937 ft 512 kts 166°
2026-05-01 10:15 -13.41491 -77.65840 34938 ft 512 kts 166°
2026-05-01 10:15 -13.48362 -77.63926 34930 ft 511 kts 166°
2026-05-01 10:16 -13.54115 -77.62323 34942 ft 511 kts 166°
2026-05-01 10:17 -13.64399 -77.59456 34943 ft 509 kts 166°
2026-05-01 10:17 -13.74640 -77.56597 34941 ft 512 kts 166°
2026-05-01 10:18 -13.85002 -77.53703 34943 ft 516 kts 166°
2026-05-01 10:19 -13.91936 -77.51764 34955 ft 517 kts 166°
2026-05-01 10:19 -13.98883 -77.49821 34945 ft 517 kts 166°
2026-05-01 10:20 -14.09228 -77.46924 34941 ft 515 kts 166°
2026-05-01 10:20 -14.16147 -77.44985 34948 ft 513 kts 166°
2026-05-01 10:21 -14.26488 -77.42085 34957 ft 512 kts 166°
2026-05-01 10:22 -14.36763 -77.39292 34943 ft 510 kts 167°
2026-05-01 10:23 -14.47073 -77.36549 34953 ft 510 kts 167°
2026-05-01 10:23 -14.57380 -77.33785 34953 ft 510 kts 167°
2026-05-01 10:24 -14.71087 -77.30098 34949 ft 510 kts 167°
2026-05-01 10:25 -14.84822 -77.26399 34950 ft 510 kts 167°
2026-05-01 10:26 -14.91700 -77.24545 34951 ft 510 kts 167°
2026-05-01 10:27 -15.05408 -77.20846 34973 ft 514 kts 167°
2026-05-01 10:28 -15.15850 -77.18026 34958 ft 519 kts 167°
2026-05-01 10:28 -15.26376 -77.15179 34957 ft 522 kts 167°
2026-05-01 10:29 -15.36903 -77.12329 34956 ft 520 kts 167°
2026-05-01 10:30 -15.50806 -77.08560 34965 ft 516 kts 167°
2026-05-01 10:31 -15.64654 -77.04802 34973 ft 513 kts 167°
2026-05-01 10:32 -15.75002 -77.01990 34965 ft 511 kts 167°
2026-05-01 10:33 -15.88722 -76.98258 34973 ft 511 kts 167°
2026-05-01 10:34 -15.99035 -76.95448 34982 ft 511 kts 167°
2026-05-01 10:34 -16.05921 -76.93571 34969 ft 511 kts 167°
2026-05-01 10:35 -16.16246 -76.90753 34976 ft 511 kts 167°
2026-05-01 10:35 -16.23118 -76.88876 34975 ft 511 kts 167°
2026-05-01 10:36 -16.33429 -76.86057 34975 ft 511 kts 167°
2026-05-01 10:37 -16.40317 -76.84173 34978 ft 513 kts 167°
2026-05-01 10:37 -16.50694 -76.81331 34983 ft 515 kts 167°
2026-05-01 10:38 -16.57591 -76.79440 34984 ft 516 kts 167°
2026-05-01 10:38 -16.64532 -76.77536 34996 ft 516 kts 167°
2026-05-01 10:39 -16.71471 -76.75631 34981 ft 515 kts 167°
2026-05-01 10:39 -16.78403 -76.73726 34982 ft 514 kts 167°
2026-05-01 10:40 -16.85319 -76.71824 34983 ft 513 kts 167°
2026-05-01 10:40 -16.92217 -76.69926 34982 ft 513 kts 167°
2026-05-01 10:41 -16.99120 -76.68025 34995 ft 512 kts 168°
2026-05-01 10:42 -17.09453 -76.65177 34986 ft 511 kts 168°
2026-05-01 10:42 -17.16339 -76.63277 34992 ft 511 kts 168°
2026-05-01 10:43 -17.23223 -76.61376 34994 ft 511 kts 168°
2026-05-01 10:43 -17.30110 -76.59473 35004 ft 511 kts 168°
2026-05-01 10:44 -17.36943 -76.57584 34993 ft 512 kts 168°
2026-05-01 10:44 -17.43835 -76.55676 34992 ft 512 kts 168°
2026-05-01 10:45 -17.50733 -76.53766 34993 ft 512 kts 168°
2026-05-01 10:45 -17.57629 -76.51854 34997 ft 512 kts 168°
2026-05-01 10:46 -17.64525 -76.49941 35004 ft 512 kts 168°
2026-05-01 10:46 -17.71424 -76.48026 34997 ft 514 kts 168°
2026-05-01 10:47 -17.78301 -76.46115 34998 ft 515 kts 168°
2026-05-01 10:47 -17.85229 -76.44189 35000 ft 515 kts 168°
2026-05-01 10:48 -17.92169 -76.42257 35002 ft 516 kts 168°
2026-05-01 10:48 -17.99109 -76.40324 35012 ft 515 kts 168°
2026-05-01 10:49 -18.06038 -76.38392 34996 ft 514 kts 168°
2026-05-01 10:49 -18.12944 -76.36465 35003 ft 513 kts 168°
2026-05-01 10:50 -18.19793 -76.34553 35000 ft 512 kts 168°
2026-05-01 10:50 -18.26668 -76.32631 35002 ft 511 kts 168°
2026-05-01 10:51 -18.33543 -76.30708 35004 ft 511 kts 168°
2026-05-01 10:51 -18.40406 -76.28743 34998 ft 511 kts 167°
2026-05-01 10:52 -18.47253 -76.26709 35000 ft 511 kts 167°
2026-05-01 10:52 -18.54103 -76.24667 35007 ft 511 kts 167°
2026-05-01 10:53 -18.60955 -76.22635 35021 ft 512 kts 167°
2026-05-01 10:53 -18.67820 -76.20603 35009 ft 512 kts 167°
2026-05-01 10:54 -18.74648 -76.18581 35006 ft 512 kts 167°
2026-05-01 10:54 -18.81516 -76.16546 35006 ft 512 kts 167°
2026-05-01 10:55 -18.88375 -76.14510 35014 ft 512 kts 167°
2026-05-01 10:55 -18.95241 -76.12471 35018 ft 513 kts 167°
2026-05-01 10:56 -19.02128 -76.10424 35015 ft 514 kts 167°
2026-05-01 10:56 -19.08973 -76.08388 35012 ft 515 kts 167°
2026-05-01 10:57 -19.15871 -76.06334 35015 ft 515 kts 167°
2026-05-01 10:57 -19.22778 -76.04276 35018 ft 515 kts 167°
2026-05-01 10:58 -19.29679 -76.02217 35026 ft 515 kts 167°
2026-05-01 10:58 -19.36598 -76.00152 35017 ft 515 kts 167°
2026-05-01 10:59 -19.43451 -75.98104 35018 ft 514 kts 167°
2026-05-01 10:59 -19.50341 -75.96043 35018 ft 514 kts 167°
2026-05-01 11:00 -19.57219 -75.93985 35019 ft 513 kts 167°
2026-05-01 11:00 -19.64089 -75.91927 35028 ft 513 kts 167°
2026-05-01 11:01 -19.70958 -75.89867 35023 ft 513 kts 167°
2026-05-01 11:01 -19.77779 -75.87820 35022 ft 512 kts 167°
2026-05-01 11:02 -19.84639 -75.85759 35021 ft 512 kts 167°
2026-05-01 11:02 -19.90352 -75.84042 35031 ft 512 kts 167°
2026-05-01 11:03 -19.97209 -75.81978 35015 ft 512 kts 167°
2026-05-01 11:03 -20.04068 -75.79913 35028 ft 511 kts 167°
2026-05-01 11:04 -20.10908 -75.77851 35011 ft 511 kts 167°
2026-05-01 11:04 -20.17730 -75.75793 35034 ft 513 kts 167°
2026-05-01 11:05 -20.24618 -75.73714 35041 ft 515 kts 167°
2026-05-01 11:05 -20.31525 -75.71626 35026 ft 516 kts 167°
2026-05-01 11:06 -20.38440 -75.69534 35031 ft 516 kts 167°
2026-05-01 11:06 -20.45353 -75.67440 35028 ft 516 kts 167°
2026-05-01 11:07 -20.55673 -75.64311 35049 ft 516 kts 167°
2026-05-01 11:07 -20.62579 -75.62215 35032 ft 515 kts 167°
2026-05-01 11:08 -20.69468 -75.60122 35033 ft 514 kts 167°
2026-05-01 11:09 -20.79793 -75.56981 35038 ft 513 kts 167°
2026-05-01 11:09 -20.86628 -75.54899 35065 ft 513 kts 167°
2026-05-01 11:10 -20.96930 -75.51759 35040 ft 513 kts 168°
2026-05-01 11:10 -21.03794 -75.49663 35041 ft 513 kts 167°
2026-05-01 11:11 -21.10657 -75.47566 35040 ft 512 kts 167°
2026-05-01 11:11 -21.17517 -75.45468 35052 ft 512 kts 168°
2026-05-01 11:12 -21.24380 -75.43367 35044 ft 512 kts 168°
2026-05-01 11:12 -21.31243 -75.41263 35033 ft 513 kts 167°
2026-05-01 11:13 -21.38065 -75.39171 35041 ft 513 kts 167°
2026-05-01 11:13 -21.44935 -75.37062 35042 ft 514 kts 167°
2026-05-01 11:14 -21.51832 -75.34944 35041 ft 515 kts 167°
2026-05-01 11:14 -21.58737 -75.32822 35046 ft 516 kts 167°
2026-05-01 11:15 -21.65646 -75.30696 35049 ft 516 kts 167°
2026-05-01 11:15 -21.72515 -75.28579 35049 ft 516 kts 167°
2026-05-01 11:16 -21.79423 -75.26449 35063 ft 516 kts 167°
2026-05-01 11:16 -21.86322 -75.24319 35049 ft 515 kts 168°
2026-05-01 11:17 -21.93172 -75.22202 35049 ft 514 kts 168°
2026-05-01 11:17 -22.00055 -75.20073 35049 ft 513 kts 168°
2026-05-01 11:18 -22.06906 -75.17952 35051 ft 512 kts 168°
2026-05-01 11:18 -22.13767 -75.15825 35059 ft 512 kts 168°
2026-05-01 11:19 -22.20615 -75.13701 35052 ft 512 kts 168°
2026-05-01 11:19 -22.27472 -75.11571 35054 ft 512 kts 168°
2026-05-01 11:20 -22.34269 -75.09458 35055 ft 512 kts 168°
2026-05-01 11:20 -22.41107 -75.07331 35073 ft 512 kts 168°
2026-05-01 11:21 -22.47962 -75.05195 35051 ft 513 kts 168°
2026-05-01 11:21 -22.54829 -75.03054 35061 ft 514 kts 168°
2026-05-01 11:22 -22.61714 -75.00905 35062 ft 515 kts 168°
2026-05-01 11:22 -22.68569 -74.98763 35058 ft 516 kts 168°
2026-05-01 11:23 -22.75479 -74.96601 35063 ft 516 kts 168°
2026-05-01 11:23 -22.82380 -74.94440 35065 ft 516 kts 168°
2026-05-01 11:24 -22.89274 -74.92278 35058 ft 515 kts 168°
2026-05-01 11:25 -22.99607 -74.89034 35066 ft 514 kts 168°
2026-05-01 11:25 -23.09881 -74.85804 35063 ft 514 kts 168°
2026-05-01 11:26 -23.20197 -74.82556 35065 ft 514 kts 168°
2026-05-01 11:27 -23.27059 -74.80392 35068 ft 513 kts 168°
2026-05-01 11:27 -23.33937 -74.78221 35085 ft 513 kts 168°
2026-05-01 11:28 -23.40798 -74.76053 35077 ft 513 kts 168°
2026-05-01 11:28 -23.47621 -74.73895 35074 ft 513 kts 168°
2026-05-01 11:29 -23.57906 -74.70637 35073 ft 513 kts 168°
2026-05-01 11:30 -23.68192 -74.67373 35086 ft 512 kts 169°
2026-05-01 11:30 -23.75048 -74.65195 35076 ft 512 kts 169°
2026-05-01 11:31 -23.81849 -74.63032 35075 ft 512 kts 168°
2026-05-01 11:31 -23.88691 -74.60853 35074 ft 512 kts 168°
2026-05-01 11:32 -23.95527 -74.58674 35084 ft 511 kts 169°
2026-05-01 11:32 -24.02369 -74.56490 35075 ft 511 kts 169°
2026-05-01 11:33 -24.09206 -74.54306 35077 ft 511 kts 169°
2026-05-01 11:33 -24.16030 -74.52123 35082 ft 511 kts 169°
2026-05-01 11:34 -24.22848 -74.49939 35100 ft 511 kts 169°
2026-05-01 11:34 -24.29632 -74.47769 35086 ft 510 kts 169°
2026-05-01 11:35 -24.36452 -74.45606 35083 ft 510 kts 169°
2026-05-01 11:35 -24.43270 -74.43445 35085 ft 510 kts 169°
2026-05-01 11:36 -24.50086 -74.41279 35082 ft 509 kts 169°
2026-05-01 11:36 -24.56894 -74.39111 35088 ft 509 kts 169°
2026-05-01 11:37 -24.63709 -74.36939 35087 ft 509 kts 169°
2026-05-01 11:37 -24.70486 -74.34775 35081 ft 510 kts 169°
2026-05-01 11:38 -24.77302 -74.32598 35093 ft 510 kts 169°
2026-05-01 11:38 -24.84131 -74.30413 35102 ft 511 kts 169°
2026-05-01 11:39 -24.90973 -74.28222 35091 ft 511 kts 169°
2026-05-01 11:39 -24.97805 -74.26031 35094 ft 511 kts 169°
2026-05-01 11:40 -25.04632 -74.23839 35097 ft 510 kts 169°
2026-05-01 11:40 -25.11418 -74.21658 35116 ft 510 kts 169°
2026-05-01 11:41 -25.18224 -74.19468 35097 ft 510 kts 169°
2026-05-01 11:41 -25.25026 -74.17277 35094 ft 509 kts 169°
2026-05-01 11:42 -25.31828 -74.15083 35101 ft 509 kts 169°
2026-05-01 11:42 -25.38631 -74.12887 35125 ft 509 kts 169°
2026-05-01 11:43 -25.45430 -74.10689 35109 ft 509 kts 170°
2026-05-01 11:43 -25.52188 -74.08502 35103 ft 509 kts 170°
2026-05-01 11:44 -25.62380 -74.05198 35107 ft 509 kts 170°
2026-05-01 11:44 -25.69184 -74.02989 35129 ft 509 kts 170°
2026-05-01 11:45 -25.75995 -74.00776 35114 ft 509 kts 170°
2026-05-01 11:45 -25.82758 -73.98575 35111 ft 509 kts 170°
2026-05-01 11:46 -25.89570 -73.96356 35106 ft 509 kts 170°
2026-05-01 11:46 -25.96369 -73.94139 35135 ft 509 kts 170°
2026-05-01 11:47 -26.03176 -73.91916 35113 ft 510 kts 170°
2026-05-01 11:47 -26.09989 -73.89688 35112 ft 510 kts 170°
2026-05-01 11:48 -26.16757 -73.87473 35112 ft 510 kts 170°
2026-05-01 11:48 -26.23572 -73.85239 35110 ft 510 kts 170°
2026-05-01 11:49 -26.29229 -73.83383 35121 ft 510 kts 170°
2026-05-01 11:49 -26.36046 -73.81144 35121 ft 510 kts 170°
2026-05-01 11:50 -26.42856 -73.78904 35117 ft 510 kts 170°
2026-05-01 11:50 -26.49664 -73.76662 35117 ft 510 kts 170°
2026-05-01 11:51 -26.56468 -73.74418 35132 ft 509 kts 170°
2026-05-01 11:51 -26.63218 -73.72190 35120 ft 508 kts 170°
2026-05-01 11:52 -26.69994 -73.69950 35118 ft 507 kts 170°
2026-05-01 11:52 -26.76766 -73.67709 35121 ft 506 kts 170°
2026-05-01 11:53 -26.83515 -73.65472 35143 ft 506 kts 171°
2026-05-01 11:53 -26.90272 -73.63231 35130 ft 506 kts 171°
2026-05-01 11:54 -26.97016 -73.60991 35124 ft 505 kts 171°
2026-05-01 11:54 -27.03765 -73.58747 35127 ft 506 kts 171°
2026-05-01 11:55 -27.10516 -73.56499 35156 ft 506 kts 171°
2026-05-01 11:55 -27.17225 -73.54262 35132 ft 506 kts 171°
2026-05-01 11:56 -27.23984 -73.52005 35129 ft 506 kts 171°
2026-05-01 11:56 -27.30732 -73.49749 35128 ft 505 kts 171°
2026-05-01 11:57 -27.37473 -73.47493 35127 ft 505 kts 171°
2026-05-01 11:57 -27.44218 -73.45233 35129 ft 505 kts 171°
2026-05-01 11:58 -27.50954 -73.42972 35131 ft 505 kts 171°
2026-05-01 11:59 -27.61062 -73.39575 35131 ft 505 kts 171°
2026-05-01 11:59 -27.67805 -73.37305 35147 ft 506 kts 171°
2026-05-01 12:00 -27.77821 -73.33544 35128 ft 515 kts 163°
2026-05-01 12:01 -27.87185 -73.27297 35139 ft 524 kts 153°
2026-05-01 12:01 -27.93272 -73.22756 35152 ft 524 kts 153°
2026-05-01 12:02 -27.99405 -73.18236 35131 ft 525 kts 154°
2026-05-01 12:02 -28.05542 -73.13753 35132 ft 524 kts 154°
2026-05-01 12:03 -28.11632 -73.09306 35131 ft 524 kts 154°
2026-05-01 12:03 -28.17770 -73.04813 35158 ft 524 kts 154°
2026-05-01 12:04 -28.23903 -73.00315 35138 ft 525 kts 154°
2026-05-01 12:04 -28.30045 -72.95804 35133 ft 526 kts 154°
2026-05-01 12:05 -28.36191 -72.91283 35132 ft 526 kts 154°
2026-05-01 12:05 -28.45403 -72.84494 35150 ft 527 kts 154°
2026-05-01 12:06 -28.51530 -72.79973 35131 ft 527 kts 154°
2026-05-01 12:06 -28.57691 -72.75429 35130 ft 527 kts 154°
2026-05-01 12:07 -28.63846 -72.70884 35129 ft 527 kts 154°
2026-05-01 12:07 -28.70011 -72.66323 35153 ft 527 kts 154°
2026-05-01 12:08 -28.76128 -72.61790 35139 ft 528 kts 154°
2026-05-01 12:08 -28.82290 -72.57217 35133 ft 528 kts 154°
2026-05-01 12:09 -28.88452 -72.52638 35127 ft 528 kts 154°
2026-05-01 12:09 -28.94605 -72.48058 35131 ft 528 kts 154°
2026-05-01 12:10 -29.03812 -72.41190 35132 ft 529 kts 154°
2026-05-01 12:11 -29.13050 -72.34281 35128 ft 529 kts 154°
2026-05-01 12:11 -29.19215 -72.29664 35128 ft 529 kts 154°
2026-05-01 12:12 -29.25378 -72.25040 35128 ft 530 kts 154°
2026-05-01 12:12 -29.31555 -72.20399 35130 ft 530 kts 154°
2026-05-01 12:13 -29.37721 -72.15760 35128 ft 530 kts 154°
2026-05-01 12:13 -29.43884 -72.11116 35123 ft 530 kts 154°
2026-05-01 12:14 -29.50028 -72.06479 35129 ft 531 kts 154°
2026-05-01 12:14 -29.56205 -72.01810 35125 ft 531 kts 154°
2026-05-01 12:15 -29.62371 -71.97143 35119 ft 531 kts 154°
2026-05-01 12:15 -29.68518 -71.92490 35120 ft 531 kts 154°
2026-05-01 12:16 -29.74689 -71.87814 35113 ft 532 kts 154°
2026-05-01 12:16 -29.80863 -71.83126 35115 ft 531 kts 154°
2026-05-01 12:17 -29.87036 -71.78431 35113 ft 531 kts 154°
2026-05-01 12:17 -29.93214 -71.73726 35115 ft 531 kts 154°
2026-05-01 12:18 -29.99381 -71.69021 35126 ft 531 kts 154°
2026-05-01 12:18 -30.05512 -71.64337 35126 ft 531 kts 153°
2026-05-01 12:19 -30.11682 -71.59616 35113 ft 531 kts 153°
2026-05-01 12:19 -30.17844 -71.54893 35114 ft 531 kts 154°
2026-05-01 12:20 -30.24011 -71.50160 35125 ft 532 kts 154°
2026-05-01 12:20 -30.30288 -71.45716 35125 ft 524 kts 161°
2026-05-01 12:21 -30.36823 -71.41978 35116 ft 522 kts 162°
2026-05-01 12:21 -30.43308 -71.38320 35121 ft 522 kts 162°
2026-05-01 12:22 -30.49833 -71.34583 35123 ft 524 kts 161°
2026-05-01 12:22 -30.56347 -71.30808 35125 ft 523 kts 161°
2026-05-01 12:23 -30.62853 -71.27029 35115 ft 522 kts 161°
2026-05-01 12:23 -30.69350 -71.23254 35157 ft 521 kts 161°
2026-05-01 12:24 -30.75838 -71.19480 35129 ft 521 kts 160°
2026-05-01 12:24 -30.82311 -71.15709 35114 ft 519 kts 161°
2026-05-01 12:25 -30.91948 -71.10084 35118 ft 518 kts 161°
2026-05-01 12:26 -30.98392 -71.06318 35123 ft 517 kts 160°
2026-05-01 12:26 -31.08013 -71.00680 35112 ft 515 kts 160°
2026-05-01 12:27 -31.17610 -70.95044 35142 ft 514 kts 160°
2026-05-01 12:28 -31.27187 -70.89408 35102 ft 512 kts 160°
2026-05-01 12:28 -31.33703 -70.86548 35085 ft 498 kts 174°
2026-05-01 12:29 -31.37116 -70.85783 34139 ft 500 kts 180°
2026-05-01 12:29 -31.40547 -70.85546 33255 ft 489 kts 187°
2026-05-01 12:29 -31.47311 -70.85562 31686 ft 480 kts 186°
2026-05-01 12:30 -31.53893 -70.85541 30553 ft 467 kts 186°
2026-05-01 12:30 -31.57125 -70.85510 29953 ft 461 kts 186°
2026-05-01 12:30 -31.60312 -70.85473 29335 ft 455 kts 186°
2026-05-01 12:31 -31.63454 -70.85435 28780 ft 449 kts 186°
2026-05-01 12:31 -31.66562 -70.85397 28218 ft 443 kts 186°
2026-05-01 12:31 -31.69631 -70.85361 27677 ft 438 kts 186°
2026-05-01 12:31 -31.72663 -70.85327 27144 ft 434 kts 186°
2026-05-01 12:32 -31.75672 -70.85290 26611 ft 430 kts 186°
2026-05-01 12:32 -31.81607 -70.85104 25581 ft 423 kts 185°
2026-05-01 12:32 -31.84529 -70.84988 25079 ft 419 kts 185°
2026-05-01 12:33 -31.87438 -70.84875 24564 ft 416 kts 185°
2026-05-01 12:33 -31.90285 -70.84767 24057 ft 413 kts 185°
2026-05-01 12:33 -31.93144 -70.84662 23546 ft 410 kts 185°
2026-05-01 12:33 -31.95983 -70.84560 23011 ft 407 kts 184°
2026-05-01 12:34 -31.98800 -70.84459 22481 ft 403 kts 184°
2026-05-01 12:34 -32.01592 -70.84360 22010 ft 399 kts 184°
2026-05-01 12:34 -32.04356 -70.84262 21510 ft 395 kts 184°
2026-05-01 12:34 -32.07086 -70.84164 21042 ft 391 kts 184°
2026-05-01 12:35 -32.09790 -70.84068 20587 ft 387 kts 183°
2026-05-01 12:35 -32.12482 -70.83974 20135 ft 387 kts 183°
2026-05-01 12:35 -32.15197 -70.83881 19686 ft 394 kts 183°
2026-05-01 12:35 -32.17968 -70.83784 19210 ft 400 kts 182°
2026-05-01 12:36 -32.19806 -70.83716 19040 ft 395 kts 182°
2026-05-01 12:36 -32.23372 -70.83583 18808 ft 379 kts 182°
2026-05-01 12:36 -32.25129 -70.83519 18678 ft 371 kts 182°
2026-05-01 12:36 -32.27696 -70.83427 18254 ft 367 kts 182°
2026-05-01 12:37 -32.30251 -70.83337 17790 ft 364 kts 182°
2026-05-01 12:37 -32.32732 -70.83249 17379 ft 359 kts 182°
2026-05-01 12:37 -32.35215 -70.83160 16976 ft 354 kts 182°
2026-05-01 12:37 -32.37660 -70.83072 16573 ft 350 kts 182°
2026-05-01 12:38 -32.40085 -70.82985 16178 ft 347 kts 181°
2026-05-01 12:38 -32.42493 -70.82899 15797 ft 347 kts 181°
2026-05-01 12:38 -32.44921 -70.82813 15408 ft 352 kts 181°
2026-05-01 12:38 -32.47393 -70.82726 14995 ft 358 kts 181°
2026-05-01 12:39 -32.49884 -70.82636 14576 ft 358 kts 180°
2026-05-01 12:39 -32.52362 -70.82548 14174 ft 355 kts 180°
2026-05-01 12:39 -32.54827 -70.82458 13777 ft 353 kts 180°
2026-05-01 12:39 -32.57285 -70.82367 13357 ft 355 kts 180°
2026-05-01 12:40 -32.59768 -70.82276 12904 ft 357 kts 180°
2026-05-01 12:40 -32.62256 -70.82185 12495 ft 359 kts 180°
2026-05-01 12:40 -32.64731 -70.82096 12271 ft 348 kts 180°
2026-05-01 12:40 -32.67081 -70.82011 12104 ft 328 kts 180°
2026-05-01 12:41 -32.69303 -70.81931 11966 ft 309 kts 180°
2026-05-01 12:41 -32.71372 -70.81855 11856 ft 295 kts 180°
2026-05-01 12:41 -32.73408 -70.81782 11738 ft 289 kts 180°
2026-05-01 12:41 -32.75409 -70.81708 11579 ft 287 kts 180°
2026-05-01 12:42 -32.77420 -70.81636 11270 ft 291 kts 180°
2026-05-01 12:42 -32.79460 -70.81564 10954 ft 296 kts 180°
2026-05-01 12:42 -32.81538 -70.81490 10627 ft 301 kts 180°
2026-05-01 12:42 -32.83655 -70.81413 10304 ft 306 kts 180°
2026-05-01 12:43 -32.85786 -70.81335 10079 ft 306 kts 180°
2026-05-01 12:43 -32.87870 -70.81258 9734 ft 296 kts 180°
2026-05-01 12:43 -32.89930 -70.81184 9094 ft 294 kts 179°
2026-05-01 12:43 -32.91909 -70.81111 8699 ft 281 kts 179°
2026-05-01 12:44 -32.93818 -70.81017 8363 ft 271 kts 178°
2026-05-01 12:44 -32.95694 -70.80914 8055 ft 268 kts 178°
2026-05-01 12:44 -32.99370 -70.80715 7447 ft 263 kts 178°
2026-05-01 12:45 -33.03100 -70.80516 6860 ft 272 kts 178°
2026-05-01 12:45 -33.04996 -70.80414 6553 ft 272 kts 177°
2026-05-01 12:45 -33.06866 -70.80313 6313 ft 265 kts 177°
2026-05-01 12:46 -33.08683 -70.80207 6098 ft 257 kts 177°
2026-05-01 12:46 -33.10451 -70.80109 5926 ft 258 kts 177°
2026-05-01 12:46 -33.12253 -70.80013 5741 ft 261 kts 178°
2026-05-01 12:46 -33.14077 -70.79917 5568 ft 262 kts 178°
2026-05-01 12:47 -33.15898 -70.79821 5380 ft 262 kts 178°
2026-05-01 12:47 -33.17703 -70.79725 5182 ft 257 kts 178°
2026-05-01 12:47 -33.19457 -70.79631 5063 ft 245 kts 178°
2026-05-01 12:47 -33.21140 -70.79544 4804 ft 240 kts 178°
2026-05-01 12:48 -33.22788 -70.79457 4539 ft 233 kts 178°
2026-05-01 12:48 -33.24370 -70.79372 4197 ft 223 kts 178°
2026-05-01 12:48 -33.25881 -70.79292 3885 ft 210 kts 178°
2026-05-01 12:48 -33.27275 -70.79218 3612 ft 191 kts 178°
2026-05-01 12:49 -33.28545 -70.79150 3401 ft 174 kts 177°
2026-05-01 12:49 -33.29724 -70.79088 3160 ft 165 kts 177°
2026-05-01 12:49 -33.30816 -70.79030 2957 ft 155 kts 177°
2026-05-01 12:49 -33.31874 -70.78974 2753 ft 150 kts 177°
2026-05-01 12:50 -33.32910 -70.78919 2521 ft 148 kts 176°
2026-05-01 12:50 -33.33933 -70.78865 2327 ft 145 kts 176°
2026-05-01 12:50 -33.34931 -70.78811 2133 ft 142 kts 176°
2026-05-01 12:50 -33.35915 -70.78760 1944 ft 141 kts 177°
2026-05-01 12:51 -33.36890 -70.78704 1773 ft 140 kts 176°
2026-05-01 12:51 -33.37864 -70.78653 1583 ft 139 kts 178°
2026-05-01 12:51 -33.39313 -70.78578 1569 ft 62 kts 177°
2026-05-01 12:52 -33.39614 -70.78562 1568 ft 36 kts 176°
2026-05-01 12:52 -33.40078 -70.78537 1571 ft 31 kts 178°
2026-05-01 12:52 -33.40285 -70.78527 1570 ft 24 kts 178°
2026-05-01 12:53 -33.40464 -70.78542 1569 ft 10 kts 228°
2026-05-01 12:53 -33.40475 -70.78625 1569 ft 11 kts 283°
2026-05-01 12:53 -33.40423 -70.78696 1568 ft 12 kts 320°
2026-05-01 12:54 -33.40384 -70.78760 1568 ft 10 kts 274°
2026-05-01 12:54 -33.40384 -70.78782 1568 ft 0 kts 266°
2026-05-01 12:55 -33.40387 -70.78813 1569 ft 4 kts 257°
2026-05-01 12:55 -33.40409 -70.78836 1569 ft 5 kts 202°
2026-05-01 12:55 -33.40445 -70.78844 1569 ft 6 kts 185°
2026-05-01 12:56 -33.40482 -70.78870 1569 ft 7 kts 224°
2026-05-01 12:56 -33.40511 -70.78906 1569 ft 3 kts 226°
2026-05-01 12:56 -33.40525 -70.78923 1569 ft 3 kts 226°
2026-05-01 12:56 -33.40532 -70.78932 1569 ft 0 kts 225°
2026-05-01 12:58 -33.40533 -70.78933 1569 ft 1 kts 225°
2026-05-01 12:58 -33.40535 -70.78936 1569 ft 0 kts 226°